This is the latest recevied weather packets stored in our database for station/object EA5FOG-11. If no packets are shown the sender has not sent any weather packets the latest 10 day(s).
| Time | Temp. | Humidity | Pressure | Rain* | Wind** | Luminosity | Snow |
|---|---|---|---|---|---|---|---|
| 1777463315 | 27.78° C | 47% | 952.9 hPa | - | - | - | - |
| 1777462414 | 27.78° C | 48% | 953.1 hPa | - | - | - | - |
| 1777460632 | 27.78° C | 49% | 953.3 hPa | - | - | - | - |
| 1777459731 | 27.22° C | 50% | 953.3 hPa | - | - | - | - |
| 1777458831 | 27.78° C | 50% | 953.5 hPa | - | - | - | - |
| 1777457930 | 27.78° C | 52% | 953.5 hPa | - | - | - | - |
| 1777457029 | 27.78° C | 53% | 953.7 hPa | - | - | - | - |
| 1777456128 | 28.33° C | 54% | 953.9 hPa | - | - | - | - |
| 1777455227 | 26.11° C | 56% | 954 hPa | - | - | - | - |
| 1777454327 | 21.67° C | 59% | 953.7 hPa | - | - | - | - |
| 1777453426 | 21.67° C | 59% | 953.9 hPa | - | - | - | - |
| 1777452525 | 21.67° C | 60% | 954 hPa | - | - | - | - |
| 1777451624 | 20.56° C | 61% | 953.7 hPa | - | - | - | - |
| 1777450723 | 20.56° C | 61% | 953.7 hPa | - | - | - | - |
| 1777449823 | 20° C | 62% | 953.9 hPa | - | - | - | - |
| 1777448922 | 18.89° C | 63% | 953.9 hPa | - | - | - | - |
| 1777448021 | 18.89° C | 63% | 953.9 hPa | - | - | - | - |
| 1777447120 | 18.33° C | 64% | 953.7 hPa | - | - | - | - |
| 1777446219 | 17.78° C | 65% | 953.8 hPa | - | - | - | - |
| 1777445319 | 16.11° C | 66% | 953.7 hPa | - | - | - | - |
| 1777444418 | 15° C | 66% | 953.4 hPa | - | - | - | - |
| 1777443517 | 15° C | 66% | 953.2 hPa | - | - | - | - |
| 1777442616 | 15° C | 66% | 953 hPa | - | - | - | - |
| 1777441716 | 15° C | 66% | 952.7 hPa | - | - | - | - |
| 1777440815 | 15° C | 66% | 952.5 hPa | - | - | - | - |
* Rain since midnight (hover to see other rain measurements)
** Current wind speed in m/s (hover to see current wind gust speed)